GW2836 Weather Reports


time (UTC)temp
F
wind
direction
speed
knots
gust
knots
rain 1hr
in
rain 24hr
in
rain mn
in
humidity
%
barometer
mb
20260505031604 32 0 0.0 0.0 0.01 0.08 0.08 91 1016.6
20260505030053 32 0 0.0 0.9 0.00 0.07 0.07 91 1016.6
20260505024605 32 0 0.0 0.0 0.00 0.07 0.07 90 1016.5
20260505023051 32 0 0.0 0.0 0.03 0.07 0.07 89 1016.4
20260505021555 33 0 0.0 0.9 0.04 0.07 0.07 89 1016.5
20260505020053 33 0 0.0 0.0 0.04 0.07 0.07 87 1016.8
20260505014608 34 0 0.0 0.9 0.04 0.07 0.07 86 1016.7
20260505013054 36 0 0.0 0.0 0.01 0.04 0.04 84 1016.5
20260505011602 37 0 0.0 2.6 0.00 0.03 0.03 84 1016.2
20260505010052 38 80 0.9 3.5 0.00 0.03 0.03 81 1016.1
20260505004555 39 85 0.9 1.7 0.00 0.03 0.03 78 1016.2
20260505003108 40 101 0.0 7.0 0.00 0.03 0.03 76 1016.3
20260505001558 42 43 0.0 1.7 0.01 0.03 0.03 66 1015.8
20260505000115 43 242 0.0 2.6 0.01 0.03 0.03 64 1016.0
20260504234554 44 215 0.9 2.6 0.03 0.03 0.03 66 1016.1
20260504233107 42 122 1.7 4.3 0.03 0.03 0.03 70 1016.3
20260504231558 44 133 2.6 6.1 0.02 0.02 0.02 65 1016.0
20260504230056 44 120 1.7 7.8 0.02 0.02 0.02 62 1015.7
20260504224601 42 118 0.0 1.7 0.00 0.00 0.00 76 1015.8
20260504223110 40 91 0.0 0.9 0.00 0.00 0.00 78 1015.8
20260504221550 39 0 0.0 0.9 0.00 0.00 0.00 78 1016.4
20260504220054 40 0 0.0 3.5 0.00 0.00 0.00 71 1016.3
20260504214551 43 0 0.9 6.1 0.00 0.00 0.00 56 1015.8
20260504213102 46 46 3.5 8.7 0.00 0.00 0.00 51 1015.6
20260504211553 48 148 4.3 8.7 0.00 0.00 0.00 45 1015.8
20260504210057 50 311 0.0 3.5 0.00 0.00 0.00 43 1015.8
20260504204554 50 124 0.9 9.6 0.00 0.00 0.00 37 1015.9
20260504203106 48 104 0.9 5.2 0.00 0.00 0.00 38 1016.0
20260504201557 46 205 0.9 7.0 0.00 0.00 0.00 52 1016.2
20260504194552 49 240 0.9 12.2 0.00 0.00 0.00 44 1016.5
20260504193054 53 174 4.3 12.2 0.00 0.00 0.00 38 1016.5
20260504191557 52 219 4.3 13.0 0.00 0.00 0.00 37 1016.5
20260504190053 51 255 2.6 13.0 0.00 0.00 0.00 39 1016.4
20260504184558 51 192 4.3 9.6 0.00 0.00 0.00 39 1016.8
20260504183053 50 25 1.7 6.1 0.00 0.00 0.00 41 1016.8
20260504181549 48 124 1.7 6.1 0.00 0.00 0.00 46 1017.0
20260504180051 46 224 0.9 6.1 0.00 0.00 0.00 50 1017.4
20260504174554 45 115 0.9 8.7 0.00 0.00 0.00 50 1017.5
20260504173050 44 131 0.9 11.3 0.00 0.00 0.00 50 1017.4
20260504171554 44 288 2.6 8.7 0.00 0.00 0.00 50 1017.1
20260504081553 39 268 0.9 2.6 0.00 0.00 0.00 38 1018.5
20260504044603 40 283 0.0 2.6 0.00 0.00 0.00 41 1020.2
20260504043055 40 281 0.0 3.5 0.00 0.00 0.00 42 1020.2
20260504041554 39 269 0.0 1.7 0.00 0.00 0.00 43 1020.2
20260504040107 40 280 0.0 0.9 0.00 0.00 0.00 43 1020.3
20260504034615 40 284 0.0 1.7 0.00 0.00 0.00 44 1020.3
20260504033055 41 280 0.0 1.7 0.00 0.00 0.00 44 1020.2